Pine River, MN

2:01 PM CST on January 17, 2018 (GMT -0600)
Pine River Regional

Weather History for KPWC - October, 2013

Change the Weather History Date:

Friday, October 18, 2013

  Actual Average Record
Temperature  
Mean Temperature 38 °F -  
Max Temperature 48 °F 51 °F 68 °F (2003)
Min Temperature 28 °F 33 °F 24 °F (2015)
Degree Days  
Heating Degree Days 27    
Moisture  
Dew Point 32 °F    
Average Humidity 80    
Maximum Humidity 100    
Minimum Humidity 46    
Precipitation  
Precipitation 0.00 in - - ()
Sea Level Pressure  
Sea Level Pressure 29.91 in    
Wind  
Wind Speed 3 mph (West)    
Max Wind Speed 9 mph    
Max Gust Speed -    
Visibility 10 miles    
Events Rain    
Averages and records for this station are not official NWS values.
T = Trace of Precipitation, MM = Missing Value Source: NWS Daily Summary

Daily Weather History Graph

Daily Weather History Graph

Search for Another Location

Airport or City:

Trip Planner

Search our weather history database for the weather conditions in past years. The results will help you decide how hot, cold, wet, or windy it might be!

Date:

Astronomy

Oct. 18, 2013 Rise Set
Actual Time 7:39 AM CDT 6:24 PM CDT
Civil Twilight 7:09 AM CDT 6:55 PM CDT
Nautical Twilight 6:33 AM CDT 7:30 PM CDT
Astronomical Twilight 5:58 AM CDT 8:05 PM CDT
Moon 6:13 PM CDT (10/18) 7:16 AM CDT (10/18)
Length of Visible Light 11h 46m
Length of Day
10h 44m
Full, 100% of the Moon is Illuminated
Oct 18
Full
Oct 18
Full
Oct 26
Last Quarter
Nov 3
New
Nov 9
First Quarter

Hourly Weather History & Observations

Time (CDT) Temp. Windchill Dew Point Humidity Pressure Visibility Wind Dir Wind Speed Gust Speed Precip Events Conditions
12:13 AM 39.2 °F 35.9 °F 37.4 °F 93% 29.93 in 10.0 mi WNW 4.6 mph - N/A   Mostly Cloudy
12:33 AM 37.4 °F 34.9 °F 37.4 °F 100% 29.93 in 10.0 mi WNW 3.5 mph - N/A   Mostly Cloudy
12:53 AM 37.4 °F 33.8 °F 37.4 °F 100% 29.93 in 10.0 mi WNW 4.6 mph - N/A   Mostly Cloudy
1:13 AM 37.4 °F 34.9 °F 35.6 °F 93% 29.93 in 10.0 mi WNW 3.5 mph - N/A   Scattered Clouds
1:32 AM 37.4 °F 34.9 °F 35.6 °F 93% 29.93 in 10.0 mi WNW 3.5 mph - N/A   Clear
1:51 AM 35.6 °F - 35.6 °F 100% 29.93 in 10.0 mi Calm Calm - N/A   Scattered Clouds
2:12 AM 35.6 °F 32.8 °F 35.6 °F 100% 29.93 in 10.0 mi WNW 3.5 mph - N/A   Scattered Clouds
2:33 AM 35.6 °F 32.8 °F 33.8 °F 93% 29.94 in 10.0 mi WNW 3.5 mph - N/A   Scattered Clouds
2:52 AM 35.6 °F - 33.8 °F 93% 29.94 in 10.0 mi Calm Calm - N/A   Mostly Cloudy
3:13 AM 35.6 °F - 33.8 °F 93% 29.94 in 10.0 mi Calm Calm - N/A   Mostly Cloudy
3:32 AM 35.6 °F - 33.8 °F 93% 29.94 in 7.0 mi Calm Calm - N/A   Mostly Cloudy
3:53 AM 33.8 °F - 32.0 °F 93% 29.94 in 10.0 mi Calm Calm - N/A   Clear
4:12 AM 33.8 °F 30.8 °F 32.0 °F 93% 29.94 in 10.0 mi WNW 3.5 mph - N/A   Clear
4:33 AM 33.8 °F - 30.2 °F 87% 29.94 in 10.0 mi Calm Calm - N/A   Clear
4:52 AM 33.8 °F - 30.2 °F 87% 29.94 in 10.0 mi Calm Calm - N/A   Clear
5:13 AM 33.8 °F - 30.2 °F 87% 29.94 in 10.0 mi Calm Calm - N/A   Clear
5:33 AM 32.0 °F - 30.2 °F 93% 29.94 in 10.0 mi Calm Calm - N/A   Clear
5:53 AM 30.2 °F - 30.2 °F 100% 29.95 in 10.0 mi Calm Calm - N/A   Clear
6:13 AM 30.2 °F - 30.2 °F 100% 29.95 in 10.0 mi Calm Calm - N/A   Clear
6:32 AM 30.2 °F - 30.2 °F 100% 29.95 in 10.0 mi Calm Calm - N/A   Clear
6:53 AM 30.2 °F - 30.2 °F 100% 29.95 in 10.0 mi Calm Calm - N/A   Clear
7:12 AM 28.4 °F - 28.4 °F 100% 29.95 in 10.0 mi Calm Calm - N/A   Clear
7:33 AM 30.2 °F - 30.2 °F 100% 29.96 in 10.0 mi Calm Calm - N/A   Clear
7:52 AM 30.2 °F - 30.2 °F 100% 29.96 in 10.0 mi Calm Calm - N/A   Clear
8:13 AM 28.4 °F - 28.4 °F 100% 29.96 in 10.0 mi Calm Calm - N/A   Clear
8:33 AM 30.2 °F - 30.2 °F 100% 29.96 in 10.0 mi Calm Calm - N/A   Clear
8:53 AM 33.8 °F - 32.0 °F 93% 29.96 in 10.0 mi Calm Calm - N/A   Scattered Clouds
9:13 AM 33.8 °F - 30.2 °F 87% 29.97 in 10.0 mi Calm Calm - N/A   Mostly Cloudy
9:33 AM 35.6 °F - 30.2 °F 81% 29.97 in 10.0 mi Calm Calm - N/A   Overcast
9:52 AM 35.6 °F - 30.2 °F 81% 29.97 in 10.0 mi Calm Calm - N/A   Overcast
10:12 AM 35.6 °F - 32.0 °F 87% 29.97 in 10.0 mi Calm Calm - N/A   Overcast
10:33 AM 37.4 °F 34.9 °F 33.8 °F 87% 29.96 in 10.0 mi SW 3.5 mph - N/A   Mostly Cloudy
10:53 AM 39.2 °F 35.0 °F 33.8 °F 81% 29.96 in 10.0 mi WSW 5.8 mph - N/A   Scattered Clouds
11:12 AM 42.8 °F 40.1 °F 35.6 °F 76% 29.95 in 10.0 mi WSW 4.6 mph - N/A   Scattered Clouds
11:33 AM 42.8 °F 41.1 °F 33.8 °F 70% 29.95 in 10.0 mi WSW 3.5 mph - N/A   Mostly Cloudy
11:53 AM 44.6 °F 42.2 °F 33.8 °F 66% 29.95 in 10.0 mi West 4.6 mph - N/A   Overcast
12:13 PM 46.4 °F 41.9 °F 33.8 °F 62% 29.95 in 10.0 mi West 9.2 mph - N/A   Mostly Cloudy
12:33 PM 46.4 °F 42.4 °F 33.8 °F 62% 29.94 in 10.0 mi WSW 8.1 mph - N/A   Scattered Clouds
12:53 PM 44.6 °F 42.2 °F 35.6 °F 71% 29.94 in 10.0 mi WSW 4.6 mph - N/A   Scattered Clouds
1:13 PM 46.4 °F 42.9 °F 32.0 °F 57% 29.93 in 10.0 mi West 6.9 mph - N/A   Scattered Clouds
1:31 PM 46.4 °F 42.4 °F 32.0 °F 57% 29.92 in 10.0 mi West 8.1 mph - N/A   Mostly Cloudy
1:53 PM 46.4 °F 43.5 °F 30.2 °F 53% 29.91 in 10.0 mi WNW 5.8 mph - N/A   Overcast
2:13 PM 48.2 °F - 28.4 °F 46% 29.90 in 10.0 mi WSW 9.2 mph - N/A   Overcast
2:33 PM 44.6 °F 41.4 °F 30.2 °F 57% 29.90 in 10.0 mi NW 5.8 mph - N/A   Mostly Cloudy
2:52 PM 46.4 °F 42.9 °F 30.2 °F 53% 29.89 in 10.0 mi WNW 6.9 mph - N/A   Mostly Cloudy
3:12 PM 46.4 °F 45.2 °F 28.4 °F 50% 29.89 in 10.0 mi WNW 3.5 mph - N/A   Overcast
3:33 PM 46.4 °F 42.9 °F 28.4 °F 50% 29.88 in 10.0 mi NW 6.9 mph - N/A   Overcast
3:53 PM 44.6 °F 41.4 °F 28.4 °F 53% 29.88 in 10.0 mi WNW 5.8 mph - N/A   Overcast
4:13 PM 44.6 °F 42.2 °F 30.2 °F 57% 29.88 in 10.0 mi WNW 4.6 mph - N/A   Overcast
4:32 PM 44.6 °F - 30.2 °F 57% 29.88 in 10.0 mi Calm Calm - N/A Rain Light Rain
4:53 PM 44.6 °F 43.1 °F 30.2 °F 57% 29.88 in 10.0 mi West 3.5 mph - N/A   Overcast
5:13 PM 44.6 °F - 30.2 °F 57% 29.88 in 10.0 mi Calm Calm - N/A   Overcast
5:32 PM 44.6 °F 43.1 °F 30.2 °F 57% 29.87 in 10.0 mi WSW 3.5 mph - N/A   Overcast
5:53 PM 44.6 °F 42.2 °F 30.2 °F 57% 29.87 in 10.0 mi WSW 4.6 mph - N/A   Overcast
6:12 PM 44.6 °F 42.2 °F 30.2 °F 57% 29.87 in 10.0 mi WSW 4.6 mph - N/A   Overcast
6:33 PM 42.8 °F 40.1 °F 30.2 °F 61% 29.87 in 10.0 mi SW 4.6 mph - N/A   Overcast
6:53 PM 42.8 °F 41.1 °F 30.2 °F 61% 29.87 in 10.0 mi WSW 3.5 mph - N/A   Overcast
7:13 PM 42.8 °F 41.1 °F 30.2 °F 61% 29.87 in 10.0 mi WSW 3.5 mph - N/A   Overcast
7:33 PM 41.0 °F 39.0 °F 32.0 °F 70% 29.87 in 10.0 mi WSW 3.5 mph - N/A   Overcast
7:53 PM 41.0 °F 38.0 °F 32.0 °F 70% 29.87 in 10.0 mi WSW 4.6 mph - N/A   Overcast
8:13 PM 41.0 °F 39.0 °F 32.0 °F 70% 29.87 in 10.0 mi WSW 3.5 mph - N/A   Scattered Clouds
8:33 PM 39.2 °F 33.6 °F 33.8 °F 81% 29.86 in 10.0 mi WNW 8.1 mph - N/A   Scattered Clouds
8:53 PM 39.2 °F 35.9 °F 33.8 °F 81% 29.86 in 10.0 mi West 4.6 mph - N/A   Mostly Cloudy
9:12 PM 39.2 °F - 33.8 °F 81% 29.85 in 10.0 mi Calm Calm - N/A   Overcast
9:33 PM 37.4 °F - 33.8 °F 87% 29.85 in 10.0 mi Calm Calm - N/A   Overcast
9:52 PM 37.4 °F - 33.8 °F 87% 29.84 in 10.0 mi Calm Calm - N/A   Overcast
10:13 PM 37.4 °F - 33.8 °F 87% 29.84 in 10.0 mi Calm Calm - N/A   Mostly Cloudy
10:33 PM 35.6 °F - 33.8 °F 93% 29.83 in 10.0 mi Calm Calm - N/A   Mostly Cloudy
10:53 PM 35.6 °F - 33.8 °F 93% 29.83 in 10.0 mi Calm Calm - N/A   Scattered Clouds
11:13 PM 35.6 °F - 33.8 °F 93% 29.82 in 10.0 mi Calm Calm - N/A   Clear
11:33 PM 33.8 °F - 32.0 °F 93% 29.81 in 10.0 mi Calm Calm - N/A   Clear
11:52 PM 33.8 °F - 32.0 °F 93% 29.80 in 10.0 mi Calm Calm - N/A   Mostly Cloudy